Regional Weather Roundup
Issued by NWS Cleveland, OH

Home | Current Version | Previous Version | Text Only | Print | Product List | Glossary Off
Versions: 1 2 3 4 5 6 7 8 9 10 11 12 13 14 15 16 17 18 19 20 21 22 23 24 25 26 27 28 29 30 31 32 33 34 35 36 37 38 39 40 41 42 43 44 45 46 47 48 49 50

000
ASUS41 KCLE 201300
RWRCLE
OHIO REGIONAL WEATHER ROUNDUP
NATIONAL WEATHER SERVICE WILMINGTON, OH
900 AM EDT SUN MAY 20 2018

NOTE: "FAIR" INDICATES FEW OR NO CLOUDS BELOW 12,000 FEET WITH NO
SIGNIFICANT WEATHER AND/OR OBSTRUCTIONS TO VISIBILITY.

OHZ001>008-015>018-024>027-034-035-043-044-201400-
   NORTHWEST OHIO

CITY           SKY/WX    TMP DP  RH WIND       PRES   REMARKS
DEFIANCE       CLOUDY    61  56  83 N5        30.12R
FINDLAY        CLOUDY    63  58  83 CALM      30.09R
TOLEDO EXPRESS CLOUDY    63  60  90 N8        30.09R
TOLEDO EXEC    CLOUDY    62  58  86 NE5       30.11R
LIMA           CLOUDY    61  57  87 N5        30.11R
$$

OHZ009>014-019>023-028>033-038-089-201400-
   NORTHEAST OHIO

CITY           SKY/WX    TMP DP  RH WIND       PRES   REMARKS
CLE-HOPKINS    CLOUDY    58  56  93 N3        30.11R FOG
CLE-LAKEFRONT  CLOUDY    55  53  93 NW5       30.09S FOG
CUY CO. ARPT   PTSUNNY   57  57 100 NE6       30.10R
LORAIN-ELYRIA  CLOUDY    57  51  80 NE14      30.09F
ASHTABULA      CLOUDY    54  54 100 NW7       30.09R
AKRON-CANTON   CLOUDY    64  60  87 NW9       30.09R FOG
WOOSTER        CLOUDY    63  60  90 NW8       30.09R
MANSFIELD      CLOUDY    61  60  97 NW7       30.09S FOG
YOUNGSTOWN     DRIZZLE   59  57  93 N12       30.08R FOG
$$

OHZ042-051>053-060>062-070>072-077>081-201400-
  SOUTHWEST OHIO

CITY           SKY/WX    TMP DP  RH WIND       PRES   REMARKS
CINC-COVINGTON PTSUNNY   72  66  81 SW6       30.08S
CINC-LUNKEN    FAIR      71  69  93 CALM      30.08S
HAMILTON       CLOUDY    70  29  21 CALM      30.09S
DAYTON         NOT AVBL
WRIGHT-PAT AFB NOT AVBL
DAYTON GENERAL CLOUDY    68  63  84 N7        30.09R HAZE
WILMINGTON     CLOUDY    68  68 100 NW10      30.09R FOG
$$

OHZ036-037-039>041-045>050-054>059-063>069-073>076-082>088-201400-
  CENTRAL AND SOUTHEAST OHIO

CITY           SKY/WX    TMP DP  RH WIND       PRES   REMARKS
COLUMBUS       FAIR      67  60  78 NW10      30.09R
OSU AIRPORT    PTSUNNY   63  59  87 NW7       30.09R
BOLTON FIELD   SUNNY     66  61  82 NW8       30.10R
RICKENBACK AFB PTSUNNY   66  64  92 MISG      30.08R
NEWARK         PTSUNNY   68  63  84 NW8       30.07R
MARION         CLOUDY    61  57  87 N3        30.11R
LANCASTER      PTSUNNY   69  66  90 W6        30.08R
ZANESVILLE     PTSUNNY   71  66  84 W5        30.07R
NEW PHILLY     PTSUNNY   68  61  78 NW9       30.08R
$$



USA.gov is the U.S. government's official web portal to all federal, state and local government web resources and services.